STARLINK-1061, 44766

Orbit data source: Space-Track

STARLINK-1061, 44766 is a payload satellite owned by SpaceX/Seattle (US) in LEO that was launched on Mon, 11 Nov 2019 UTC via an FALCON 9 launch vehicle from the Air Force Eastern Test Range (AFETR). Payloads include a variety of satellites, spacecraft, and rockets equipped with specific instruments for various scientific and technological missions. These include communications satellites like Starlink; space stations such as the ISS; scientific satellites like the Hubble; Earth observation satellites from companies like Planet Labs, Umbra, and HawkEye 360; GPS; miniature CubeSats for education and research; and military/defense satellites.

Loading next visibility...
STARLINK-1061 details
Identifier
44766, 2019-074BF
Orbit
LEO
Last TLE update4 hours ago
Origin
Flag of USSpaceX/Seattle (US)
ManufacturerSpaceX/Seattle
MissionPartially operational Commercial Communications
Bus & MotorSTARLINK, Unknown motor
Mass260 kg wet, ~248 kg dry
Launch date (UTC)
2019-11-11 (5 years ago)
Launch vehicle
FALCON 9
Launch site
Air Force Eastern Test Range (AFETR)
Object type
Payload
Rocket body
Debris
Shape & HBRBox + 1 Pan, 8.86 m
Radar Cross Section13.562 m², Large (>1 m²)

Expand to show TLE details & history

TLE from 4 hours ago
0 STARLINK-1061
1 44766U 19074BF  24340.00002315  .00452450  00000-0  45383-2 0  9997
2 44766  53.0528 118.7619 0000980  52.6446 279.8322 15.63523663  5793
Epoch: 2024-12-05T00:00Z
Definitive object data (Epoch: 2024-12-05T00:00:02Z)
Latitude-21.87212°
Longitude26.99492°
Altitude383.548 km
Speed7.68 km/s
True Right ascension06h 45m 09s
True Declination-21° 44' 49"
Sunlit
Object was in full shadow at TLE epoch
Visualization TLE readout
Latitude-21.40026°
Longitude-119.31981°
Altitude383.64 km
Speed7.68 km/s
Apparent Right ascension18h 07m 24s
Apparent Declination-43° 15' 07"
Sunlit
Object is in daylight
Visualization observer readout
Local Sidereal Time02:01:23
Azimuth244.701° WSW
Elevation-44.927°
Doppler factor1
Orbital elements
Apogee altitude378.428 km
Perigee altitude377.104 km
Semi-major axis6,755.903 km
Eccentricity0.000098
Inclination53.0528°
RAAN118.7619°
Arg. of periapsis52.6446°
True anomaly279.82113°
Mean anomaly279.8322°
Eccentric anomaly279.82667°
Mean motion3.90857 °/min
BSTAR0.0045383
Orbital period92.11 mins
Loading maneuver chart data...

STARLINK-1061 Visibility forecast

Observer location: undefined°, undefined

Span
Click to sort rows by Start time (UTC) header in descending order
Start Az.
Max El. time (UTC)
Max El. Az.
Max El.
End time (UTC)
End Az.
4 mins2024-12-05 12:36:03.344Z250.11° W2024-12-05 12:38:03.344Z6.269° NNE37.628°2024-12-05 12:40:03.344Z41.616° NE
4 mins2024-12-05 19:02:03.344Z310.4° NW2024-12-05 19:04:03.344Z127.912° SE43.095°2024-12-05 19:06:03.344Z130.28° SE
|